Stations météo

réclame
Mon MeteoGroup
Valladolid, Espagne (8141): Température de l'air & dewpoint: 11.01.2020 23:00:00 - 17.01.2020 23:00:00 (CET)Valladolid, Espagne (8141): Vitesse du vent: 11.01.2020 23:00:00 - 17.01.2020 23:00:00 (CET)Valladolid, Espagne (8141): Direction du vent: 11.01.2020 23:00:00 - 17.01.2020 23:00:00 (CET)Valladolid, Espagne (8141): reduced air pressure: 11.01.2020 23:00:00 - 17.01.2020 23:00:00 (CET)Valladolid, Espagne (8141): visibility: 11.01.2020 23:00:00 - 17.01.2020 23:00:00 (CET)Valladolid, Espagne (8141): Quantités de précipitations: 11.01.2020 23:00:00 - 17.01.2020 23:00:00 (CET)
Date & Time tt [°C] td [°C] ff [km/h] ff [knt] dd ppp [hPa] vv [km] rr [mm]
17.01.2020 23:00:00 5,7 2,5 2 1 E 1032,8 20 0,0
17.01.2020 22:00:00 5,9 1,8 4 2 S 1032,8 25 -
17.01.2020 21:00:00 6,1 2,2 2 1 SSE 1033,4 20 0,0
17.01.2020 20:00:00 6,2 2,3 5 3 W 1033,4 20 0,0
17.01.2020 19:00:00 7,3 2,0 8 4 W 1032,5 30 -
17.01.2020 18:00:00 8,2 2,4 9 5 W 1032,0 20 0,0
17.01.2020 17:00:00 9,3 2,2 8 4 W 1031,4 20 0,0
17.01.2020 16:00:00 10,6 1,7 9 5 W 1030,6 30 -
17.01.2020 15:00:00 9,6 2,9 15 8 W 1030,5 20 0,0
17.01.2020 14:00:00 8,7 3,3 18 10 W 1031,0 20 0,0
17.01.2020 13:00:00 8,9 3,3 16 9 W 1031,4 30 -
17.01.2020 12:00:00 8,4 4,4 15 8 W 1031,4 20 0,0
17.01.2020 11:00:00 7,6 5,1 11 6 WSW 1030,7 20 0,0
17.01.2020 10:00:00 6,7 5,6 9 5 WSW 1030,5 20 -
17.01.2020 09:00:00 6,4 5,8 9 5 SW 1029,5 20 0,0
17.01.2020 08:00:00 6,2 5,8 5 3 SSW 1028,8 20 0,2
17.01.2020 07:00:00 6,3 5,9 9 5 SW 1027,9 15 -
17.01.2020 06:00:00 6,4 5,8 9 5 SSW 1027,1 19 0,0
17.01.2020 05:00:00 6,5 6,1 4 2 SW 1026,7 18 1,0
17.01.2020 04:00:00 6,6 6,2 5 3 SSW 1026,7 15 -
17.01.2020 03:00:00 6,2 5,8 4 2 SW 1026,7 19 0,0
17.01.2020 02:00:00 6,6 6,0 8 4 SSW 1026,2 19 0,0
17.01.2020 01:00:00 6,9 6,2 5 3 S 1025,9 20 -
17.01.2020 00:00:00 7,5 6,3 11 6 SW 1025,8 4,1 0,6
16.01.2020 23:00:00 8,1 5,0 5 3 SSW 1024,9 20 0,2
16.01.2020 22:00:00 7,9 4,8 8 4 S 1024,6 15 -
16.01.2020 21:00:00 8,4 4,8 11 6 S 1024,0 16 1,0
16.01.2020 20:00:00 9,6 4,4 9 5 S 1023,4 20 0,0
16.01.2020 19:00:00 9,7 4,1 5 3 S 1022,9 30 -
16.01.2020 18:00:00 10,2 3,5 9 5 SSW 1022,0 20 0,0
16.01.2020 17:00:00 10,9 3,2 11 6 SSW 1022,0 20 0,0
16.01.2020 16:00:00 13,3 2,5 15 8 SW 1021,5 30 -
16.01.2020 15:00:00 14,0 4,3 11 6 SSW 1021,6 20 0,0
16.01.2020 14:00:00 13,4 5,5 13 7 SW 1022,8 20 0,0
16.01.2020 13:00:00 12,5 6,1 15 8 WSW 1024,0 30 -
16.01.2020 12:00:00 10,7 7,2 9 5 SSW 1025,4 20 0,0
16.01.2020 11:00:00 8,5 6,5 5 3 SSW 1026,5 20 0,0
16.01.2020 10:00:00 7,1 5,7 8 4 S 1026,2 25 -
16.01.2020 09:00:00 6,7 5,2 8 4 S 1026,5 20 0,0
16.01.2020 08:00:00 6,4 5,0 4 2 SSE 1026,3 20 0,0
16.01.2020 07:00:00 6,7 5,2 5 3 S 1025,9 20 -
16.01.2020 06:00:00 7,0 5,3 8 4 S 1025,6 20 0,0
16.01.2020 05:00:00 6,7 5,3 5 3 S 1026,0 20 0,0
16.01.2020 04:00:00 6,8 5,3 5 3 SSE 1026,0 20 -
16.01.2020 03:00:00 6,8 5,1 5 3 SSE 1026,2 20 0,0
16.01.2020 02:00:00 7,3 5,6 5 3 S 1026,3 20 0,0
16.01.2020 01:00:00 7,4 6,0 4 2 SSE 1026,2 20 -
16.01.2020 00:00:00 8,0 6,8 4 2 SSE 1026,3 20 0,0
15.01.2020 23:00:00 8,3 7,4 5 3 S 1026,0 20 0,0
15.01.2020 22:00:00 7,8 6,7 4 2 SSE 1026,1 20 -
15.01.2020 21:00:00 9,0 7,6 5 3 SSW 1025,6 20 0,0
15.01.2020 20:00:00 9,2 7,5 4 2 S 1025,3 20 0,0
15.01.2020 19:00:00 9,6 7,4 9 5 S 1024,5 20 -
15.01.2020 18:00:00 10,3 7,7 5 3 S 1023,5 20 0,0
15.01.2020 17:00:00 10,6 8,0 5 3 S 1022,9 20 0,0
15.01.2020 16:00:00 10,0 7,4 4 2 SSE 1022,4 25 -
15.01.2020 15:00:00 10,0 6,9 8 4 S 1022,3 20 0,0
15.01.2020 14:00:00 9,4 5,9 9 5 S 1022,8 20 0,0
15.01.2020 13:00:00 8,7 6,2 8 4 S 1023,1 20 -
15.01.2020 12:00:00 7,7 6,6 8 4 WSW 1023,9 20 0,4
15.01.2020 11:00:00 6,8 5,1 5 3 WSW 1023,7 11 0,4
15.01.2020 10:00:00 6,4 3,2 4 2 S 1022,1 20 -
15.01.2020 09:00:00 6,1 2,7 8 4 SSE 1020,9 20 0,0
15.01.2020 08:00:00 6,3 2,9 11 6 S 1020,4 20 0,0
15.01.2020 07:00:00 6,1 3,4 11 6 S 1019,9 15 -
15.01.2020 06:00:00 6,4 4,1 8 4 S 1019,7 20 0,0
15.01.2020 05:00:00 6,9 4,2 9 5 S 1019,6 20 0,0
15.01.2020 04:00:00 7,1 4,7 11 6 S 1020,0 15 -
15.01.2020 03:00:00 6,5 4,8 9 5 S 1020,3 20 0,0
15.01.2020 02:00:00 5,4 3,1 5 3 S 1020,7 20 0,0
15.01.2020 01:00:00 5,4 2,9 8 4 S 1020,9 15 -
15.01.2020 00:00:00 5,7 4,3 8 4 S 1021,1 19 0,2
14.01.2020 23:00:00 6,0 4,3 8 4 S 1021,2 13 0,0
14.01.2020 22:00:00 5,9 4,4 4 2 SW 1021,3 12 -
14.01.2020 21:00:00 5,9 4,1 8 4 WSW 1021,2 19 0,0
14.01.2020 20:00:00 6,1 3,8 5 3 SW 1021,2 20 0,0
14.01.2020 19:00:00 7,3 3,9 9 5 SW 1020,7 30 -
14.01.2020 18:00:00 8,6 4,0 8 4 S 1019,7 20 0,0
14.01.2020 17:00:00 9,1 4,1 8 4 SSW 1019,6 20 0,0
14.01.2020 16:00:00 9,6 3,8 11 6 SW 1019,7 20 -
14.01.2020 15:00:00 9,8 3,7 11 6 SW 1020,0 2,3 0,0
14.01.2020 14:00:00 9,1 3,5 8 4 S 1020,9 2,9 0,0
14.01.2020 13:00:00 6,4 2,7 9 5 S 1022,8 20 -
14.01.2020 12:00:00 3,6 1,6 11 6 S 1024,5 20 0,0
14.01.2020 11:00:00 1,9 0,6 11 6 S 1025,2 20 0,0
14.01.2020 10:00:00 0,8 -0,1 13 7 S 1025,1 20 -
14.01.2020 09:00:00 0,0 -0,7 13 7 S 1025,0 20 0,0
14.01.2020 08:00:00 -0,5 -1,1 8 4 S 1025,6 20 0,0
14.01.2020 07:00:00 -0,4 -1,0 11 6 S 1024,9 20 -
14.01.2020 06:00:00 -0,4 -1,1 13 7 S 1024,9 20 0,0
14.01.2020 05:00:00 -0,2 -1,0 11 6 S 1025,1 20 0,0
14.01.2020 04:00:00 0,2 -0,7 13 7 S 1025,3 15 -
14.01.2020 03:00:00 -0,5 -0,9 5 3 SSW 1025,7 19 0,0
14.01.2020 02:00:00 -0,7 -0,7 9 5 S 1025,8 17 0,0
14.01.2020 01:00:00 -1,1 -1,1 9 5 S 1026,8 1,5 -
14.01.2020 00:00:00 -1,7 -1,7 2 1 SE 1027,3 0,4 0,0
13.01.2020 23:00:00 -1,5 -1,5 4 2 ESE 1027,0 0,7 0,0
13.01.2020 22:00:00 -1,4 -1,4 4 2 NNW 1026,8 0,6 -
13.01.2020 21:00:00 -1,3 -1,3 5 3 NNW 1026,6 0,2 0,0
13.01.2020 20:00:00 -0,8 -0,8 4 2 NNW 1025,7 0,2 0,0
13.01.2020 19:00:00 -0,4 -0,7 4 2 WNW 1025,7 0,7 -
13.01.2020 18:00:00 0,2 -0,1 5 3 NW 1025,9 - 0,0
13.01.2020 17:00:00 0,9 0,5 2 1 NNE 1025,9 8 0,0
13.01.2020 16:00:00 0,6 0,3 4 2 SE 1026,6 3,0 -
13.01.2020 15:00:00 -0,2 -0,3 4 2 S 1027,6 7 0,0
13.01.2020 14:00:00 -0,6 -0,7 5 3 S 1028,4 8 0,0
13.01.2020 13:00:00 -1,0 -1,0 5 3 SSW 1029,6 0,9 -
13.01.2020 12:00:00 -1,5 -1,5 4 2 S 1030,2 1,8 0,0
13.01.2020 11:00:00 -2,3 -2,3 4 2 SW 1030,6 3,0 0,0
13.01.2020 10:00:00 -2,4 -2,4 5 3 NW 1030,4 0,3 -
13.01.2020 09:00:00 -2,6 -2,6 4 2 SSW 1030,2 0,3 0,0
13.01.2020 08:00:00 -2,4 -2,4 4 2 S 1030,0 0,3 0,0
13.01.2020 07:00:00 -2,4 -2,4 4 2 SE 1030,2 0,2 -
13.01.2020 06:00:00 -2,0 -2,0 4 2 SE 1030,4 0,2 0,0
13.01.2020 05:00:00 -1,9 -1,9 4 2 S 1031,2 0,2 0,0
13.01.2020 04:00:00 -2,1 -2,1 4 2 NW 1032,1 0,2 -
13.01.2020 03:00:00 -2,4 -2,4 2 1 NNE 1032,2 0,4 0,0
13.01.2020 02:00:00 -2,7 -2,7 2 1 N 1032,9 1,2 0,0
13.01.2020 01:00:00 -1,9 -1,9 5 3 NW 1033,4 0,3 -
13.01.2020 00:00:00 -1,3 -1,3 4 2 NNW 1033,9 0,4 0,0
12.01.2020 23:00:00 -0,7 -0,8 4 2 NNW 1033,7 0,3 0,0
12.01.2020 22:00:00 0,2 0,1 4 2 NNW 1033,6 0,2 -
12.01.2020 21:00:00 0,5 0,4 4 2 ESE 1033,8 0,2 0,0
12.01.2020 20:00:00 0,8 0,5 2 1 N 1034,1 0,2 0,0
12.01.2020 19:00:00 1,3 0,0 4 2 WNW 1033,6 8 -
12.01.2020 18:00:00 2,9 0,3 5 3 SSW 1032,7 19 0,0
12.01.2020 17:00:00 3,8 0,3 2 1 S 1032,3 16 0,0
12.01.2020 16:00:00 4,8 0,0 4 2 SW 1032,0 12 -
12.01.2020 15:00:00 2,6 -0,2 2 1 NNE 1033,3 7 0,0
12.01.2020 14:00:00 1,0 -0,3 4 2 E 1034,6 7 0,0
12.01.2020 13:00:00 -1,9 -1,9 4 2 NNE 1037,2 3,0 -
12.01.2020 12:00:00 -3,1 -3,1 4 2 N 1038,0 4,5 0,0
12.01.2020 11:00:00 -3,9 -3,9 4 2 N 1038,2 1,7 0,0
12.01.2020 10:00:00 -4,0 -4,0 4 2 NNW 1037,6 0,6 -
12.01.2020 09:00:00 -3,9 -3,9 2 1 NNW 1037,0 1,8 0,0
12.01.2020 08:00:00 -4,2 -4,2 4 2 E 1037,1 2,8 0,0
12.01.2020 07:00:00 -4,0 -4,0 4 2 SSE 1036,9 2,0 -
12.01.2020 06:00:00 -3,5 -3,5 5 3 ESE 1036,6 0,5 0,0
12.01.2020 05:00:00 -2,8 -2,8 5 3 E 1036,6 0,2 0,0
12.01.2020 04:00:00 -2,1 -2,1 4 2 SE 1036,2 0,2 -
12.01.2020 03:00:00 -1,9 -1,9 4 2 SSE 1036,1 0,2 0,0
12.01.2020 02:00:00 -2,0 -2,0 4 2 S 1036,2 0,2 0,0
12.01.2020 01:00:00 -2,1 -2,1 4 2 SE 1036,4 0,2 -
12.01.2020 00:00:00 -2,0 -2,0 5 3 SSW 1036,5 0,2 0,0
11.01.2020 23:00:00 -1,7 -1,7 5 3 SSE 1036,4 0,2 0,0

tt = Température de l'air
td = dewpoint
ff = Vitesse du vent
dd = Direction du vent
ppp = reduced air pressure
vv = visibility
rr = Quantités de précipitations

stations d'obs. à proximité